Regional Weather Roundup
Issued by NWS

Home | Current Version | Previous Version | Text Only | Print | Product List | Glossary Off
Versions: 1 2 3 4 5 6 7 8 9 10 11 12 13 14 15 16 17 18 19 20 21 22 23 24 25 26 27 28 29 30 31 32 33 34 35 36 37 38 39 40 41 42 43 44 45 46 47 48 49 50

000
ASUS43 KMKX 201000
RWRWI

WISCONSIN REGIONAL WEATHER ROUNDUP
NATIONAL WEATHER SERVICE MILWAUKEE/SULLIVAN WI
500 AM CDT MON OCT 20 2014

NOTE: "FAIR" INDICATES FEW OR NO CLOUDS BELOW 12,000 FEET WITH NO
SIGNIFICANT WEATHER AND/OR OBSTRUCTIONS TO VISIBILITY.

WIZ001-002-006>008-014>016-023>028-201100-
NORTHWEST WISCONSIN

CITY           SKY/WX    TMP DP  RH WIND       PRES   REMARKS
SUPERIOR ARPT  CLEAR     40  38  95 SW5       29.88R
ASHLAND        CLOUDY    45  41  86 W3        29.86R
HAYWARD        CLEAR     37  35  92 CALM      29.87R
SIREN          CLEAR     40  38  95 CALM      29.90R
CUMBERLAND     PTCLDY    43  37  81 NW5       29.88R
RICE LAKE      CLEAR     44  39  84 W3        29.89R
CHETEK         CLEAR     45  41  88 CALM      29.88R
LADYSMITH      CLEAR     44  40  85 NW7       29.87R
EAU CLAIRE     NOT AVBL
MENOMONIE      CLEAR     47  41  81 W5        29.89R
NEW RICHMOND   CLEAR     44  40  85 W6        29.91R
OSCEOLA        CLEAR     38  38 100 CALM      29.93R
$$

WIZ003>005-009-010-017-018-201100-
NORTH CENTRAL WISCONSIN

CITY           SKY/WX    TMP DP  RH WIND       PRES   REMARKS
MANITOWISH WTR CLOUDY    46  43  91 NW8       29.81R
ARBOR VITAE    CLOUDY    47  43  86 NW6       29.81R
WOODRUFF       CLOUDY    47  43  86 NW6       29.81R
RHINELANDER    CLOUDY    46  42  86 NW7       29.81R
EAGLE RIVER    CLOUDY    46  44  95 NW7       29.79R
LAND O LAKES   CLOUDY    46  42  86 N7        29.81R
PHILLIPS       CLEAR     38  38 100 CALM      29.82R FOG
TOMAHAWK       CLEAR     37  37  97 CALM      29.82R FOG
MEDFORD        CLEAR     41  39  93 NW5       29.83R
MERRILL        PTCLDY    41  40  99 CALM      29.81R
$$

WIZ029-030-035-036-043>047-201100-
CENTRAL WISCONSIN

CITY           SKY/WX    TMP DP  RH WIND       PRES   REMARKS
WAUSAU         CLEAR     43  41  93 NW6       29.80R
MOSINEE        CLEAR     41  41 100 NW8       29.80R
MARSHFIELD     CLEAR     46  42  86 NW9       29.83R
STEVENS POINT  CLEAR     41  41  98 NW7       29.80R
WAUPACA        CLEAR     40  38  96 CALM      29.77S FOG
WAUTOMA        NOT AVBL
WISC RAPIDS    CLEAR     46  42  86 N8        29.82R
CAMP DOUGLAS   NOT AVBL
$$

WIZ011>013-019>022-031-037>040-048>050-201100-
NORTHEAST WISCONSIN

CITY           SKY/WX    TMP DP  RH WIND       PRES   REMARKS
ANTIGO         CLEAR     34  34 100 NW5       29.79R FOG     WCI  30
SHAWANO        PTCLDY    41  39  93 CALM      29.77R
OCONTO         PTCLDY    37  37 100 CALM      29.75R
STURGEON BAY   CLEAR     46  43  87 W6        29.75S
GREEN BAY      CLEAR     40  39  97 SW3       29.76S
MANITOWOC      NOT AVBL
APPLETON       CLEAR     43  41  93 W3        29.77S
CLINTONVILLE   PTCLDY    37  37 100 W3        29.77R FOG
OSHKOSH        CLEAR     46  42  86 W3        29.76S
$$

WIZ032>034-041-042-053>061-201100-
SOUTHWEST WISCONSIN

CITY           SKY/WX    TMP DP  RH WIND       PRES   REMARKS
LA CROSSE      CLEAR     46  41  82 CALM      29.88R
SPARTA         CLEAR     47  40  78 NW7       29.86R
VIROQUA        CLEAR     49  43  80 NW10      29.85R
BOSCOBEL       CLEAR     46  42  86 CALM      29.85R
PRAIRIE DU CHI CLEAR     48  41  79 W5        29.85R
PLATTEVILLE    CLEAR     47  44  89 CALM      29.84R
$$

WIZ056-057-062-063-064-067-068-201100-
SOUTH CENTRAL WISCONSIN

CITY           SKY/WX    TMP DP  RH WIND       PRES   REMARKS
REEDSBURG      CLOUDY    47  44  89 W10       29.80R
BARABOO/DELLS  CLOUDY    49  43  80 W7        29.80R
LONE ROCK      NOT AVBL
MINERAL POINT  CLEAR     46  43  87 NW5       29.81S
MADISON        PTCLDY    43  40  89 CALM      29.79R
MIDDLETON      PTCLDY    49  44  81 W7        29.80R
WATERTOWN      CLEAR     39  39 100 CALM      29.78R
MONROE         CLEAR     46  43  87 W14       29.79S
JANESVILLE     CLEAR     46  41  81 S5        29.79S
$$

WIZ051-052-058>065-066-070>072-201100-
SOUTHEAST WISCONSIN

CITY           SKY/WX    TMP DP  RH WIND       PRES   REMARKS
MILWAUKEE      CLEAR     49  42  77 SW7       29.78S
WAUKESHA       CLEAR     45  41  87 SW3       29.79S
MILWAUKEE/TIMM CLEAR     46  41  81 SW7       29.78F
RACINE         CLEAR     49  42  77 W10       29.79S
BURLINGTON     CLEAR     42  40  92 CALM      29.79F
KENOSHA        MOCLDY    48  43  82 W10       29.79S
FOND DU LAC    CLEAR     44  40  85 SW5       29.77S
SHEBOYGAN      CLEAR     48  42  80 W10       29.76S
WEST BEND      CLEAR     46  41  81 W5        29.77S
JUNEAU         CLEAR     42  40  94 CALM      29.78S
$$

LSZ147-162-201100-
LAKE SUPERIOR

STATION/POSITION TIME  TEMP    WIND        PRES    WAVE
                       AIR SEA DIR/SP/G            HT/PER
                 (UTC) (F)     (DEG/KT/KT) (MB)    (FT/S)
W MID LAKE BUOY  0850   47 46  310/  6/  6 1009.7R   1
DEVILS ISLAND    0900   51     330/  9/ 10 1010.7R
PORT WING        0900   50     280/ 11/ 12 1011.2R
SAXON HARBOR     0900   50      CALM  /  4 1010.5R
$$

LMZ867-665-643>646-201100-
LAKE MICHIGAN

STATION/POSITION TIME  TEMP    WIND        PRES    WAVE
                       AIR SEA DIR/SP/G            HT/PER
                 (UTC) (F)     (DEG/KT/KT) (MB)    (FT/S)
CHAMBERS ISLAND  0900   49     230/  2/  3 1007.1S
N MID LAKE BUOY  0850   52 52  250/ 10/ 12 1006.7F   5/ 7
NORTHPORT PIER   0900   52     260/  4/  6 1006.8F
KEWAUNEE LAKESHO 0900   46     290/  5/  7 1006.3F
SHEBOYGAN LAKESH 0900   50 51  260/ 11/ 14 1007.9F
PORT WASHINGTON  0940   50     290/  8/ 11 1008.5F
ATWATER BUOY     0900   52     240/ 14/ 19 1009.1F
MILWAUKEE LAKESH 0900   52     260/ 13/ 17   N/A
S MID LAKE BUOY  0850   55 54  230/ 17/ 21 1008.9F   5/ 6
KENOSHA   LAKESH 0900   52     250/ 13/ 18 1008.5F
$$

TC  - TEMPERATURE IN CELSIUS
VSB - VISIBILITY IN STATUTE MILES
WCI - WIND CHILL INDEX
HX  - HEAT INDEX



USA.gov is the U.S. government's official web portal to all federal, state and local government web resources and services.